{"data":{"norad_id":57104,"epoch":"2026-09-20T08:41:17.262240Z","epoch_age_seconds":132844,"freshness":"FRESH","line1":"1 57104U 23090D   26263.36200535 -.00003227  00000+0 -10789-3 0  9997","line2":"2 57104  43.0014 262.2708 0001085 279.9568  80.1161 15.27554585180090","mean_motion":15.27554585,"eccentricity":0.0001085,"inclination_deg":43.0014,"raan_deg":262.2708,"arg_perigee_deg":279.9568,"mean_anomaly_deg":80.1161,"bstar":-0.00010789,"rev_number":18009,"period_min":94.26831709585,"perigee_km":482.38075179922,"apogee_km":483.86964569634,"semimajor_km":6861.2621987478,"source":"CELESTRAK","updated_at":"2026-09-21T09:00:33.558407Z"}}